Theta_e
306 306 306 305 305 305 305 305 306 309 308 307 306 305 305 305 305 305 304 304 302 303 303 304 302 301 299 302 303 303 303 308 312 315 314 314 313 314
304 304 305 304 304 304 304 304 305 306 307 305 305 305 305 304 304 304 304 303 303 302 302 302 302 301 299 300 300 303 303 306 309 316 314 314 313 314
304 304 303 303 303 303 303 303 303 303 305 304 304 303 303 303 303 303 303 303 302 302 301 302 301 300 299 299 299 301 305 307 305 307 315 314 314 312
303 302 302 302 302 302 302 302 301 301 301 302 301 301 301 301 301 302 302 302 302 302 301 301 300 300 299 300 301 300 301 307 308 307 312 313 312 312
301 301 301 301 301 301 301 300 299 298 297 297 298 297 296 296 297 298 300 301 301 301 301 300 299 299 299 299 299 302 301 302 306 307 308 313 313 312
300 300 300 300 300 297 296 296 295 295 295 295 295 296 295 295 294 295 298 299 300 301 300 299 299 299 298 299 298 299 303 303 305 308 309 309 314 312
297 296 296 296 293 292 293 292 291 292 291 291 292 293 294 294 294 295 295 295 296 298 298 299 299 298 297 297 298 299 300 302 303 307 307 309 312 311
294 293 293 292 294 292 291 290 290 289 289 290 290 290 290 291 292 293 295 295 295 296 297 296 296 295 296 296 296 296 297 299 303 306 307 311 312 310
292 292 292 292 291 291 291 289 288 288 288 288 288 289 290 291 292 292 293 293 294 295 295 294 294 294 294 294 293 295 295 298 303 305 305 309 311 309
293 292 292 291 290 290 288 288 288 287 288 288 288 289 289 290 290 290 290 291 292 292 293 293 293 293 293 292 292 294 296 299 302 303 305 308 309 307
292 291 291 290 289 288 287 287 287 288 288 288 288 289 289 290 291 290 290 290 292 293 292 292 292 292 291 290 292 295 298 300 302 303 303 307 306 305
290 290 290 289 289 288 287 287 288 288 288 288 289 289 290 290 290 290 290 290 291 291 292 291 292 291 293 289 289 292 299 302 303 302 300 299 297 295
289 289 289 290 289 288 288 288 288 288 288 288 289 289 289 289 289 289 289 288 289 290 291 291 291 291 292 289 286 287 290 294 295 294 296 295 293 293
288 288 289 289 288 288 289 289 289 288 289 289 289 289 289 288 288 287 287 287 288 288 289 290 290 291 292 288 287 286 286 286 288 288 288 288 288 288
287 287 287 287 288 290 289 289 289 289 289 289 289 288 288 288 288 288 288 287 287 287 288 289 289 290 291 288 287 286 285 285 285 285 285 284 284 285
286 286 287 288 289 289 289 288 289 289 288 288 288 287 288 288 288 287 288 288 288 287 287 288 289 290 289 288 287 287 287 286 285 285 285 284 284 284
285 286 287 288 289 289 288 288 288 288 288 288 287 287 288 288 288 287 288 288 289 288 286 287 289 289 288 288 288 287 286 286 286 286 286 285 284 284
285 287 287 287 287 288 288 288 288 288 288 287 287 287 288 288 288 288 288 288 288 288 287 287 287 287 287 286 286 286 286 285 285 285 285 285 283 282
287 287 287 287 287 287 288 288 288 288 288 288 287 287 287 288 288 288 288 288 288 288 287 287 288 288 288 287 285 285 285 284 284 284 283 282 281 281
287 287 287 286 286 286 287 287 287 287 287 287 287 287 286 287 288 288 288 288 288 288 287 287 288 288 287 287 285 284 284 283 283 282 281 280 280 280
287 286 286 286 286 286 286 286 286 287 286 286 286 286 286 286 287 287 287 287 287 287 286 284 285 285 284 284 284 281 282 282 281 280 279 279 279 279
286 286 285 285 285 285 285 286 286 287 287 287 287 286 286 286 286 286 286 287 286 285 284 283 284 284 285 283 281 280 278 279 281 281 281 282 282 282
285 285 284 284 285 285 285 286 286 286 286 286 286 286 285 286 286 286 286 285 285 285 285 285 285 284 283 282 281 280 279 280 279 279 278 279 281 282
Wind_Speed
13 15 16 18 19 20 21 22 20 12 15 27 26 27 26 25 23 20 23 27 36 35 32 27 27 31 29 27 27 25 36 31 18 52 53 53 51 51
13 14 16 17 18 19 20 22 22 19 12 29 30 28 28 29 28 27 28 30 30 28 26 21 29 31 30 27 26 24 26 31 18 39 54 56 55 52
12 14 15 17 18 19 21 21 20 22 17 36 28 31 31 32 32 29 31 33 29 28 28 29 29 30 30 30 26 22 23 25 23 22 56 56 55 53
13 14 16 17 18 20 21 22 19 25 25 25 35 31 30 30 32 33 28 30 28 29 25 25 27 28 27 23 23 23 22 21 24 23 17 59 59 54
13 14 16 18 20 22 22 21 23 26 25 25 34 31 32 29 33 34 33 31 29 29 20 23 26 27 26 25 25 22 19 23 24 25 28 42 57 55
14 15 17 18 19 19 23 25 25 28 26 26 28 29 28 27 25 27 31 27 28 25 23 24 23 21 24 31 25 20 18 20 20 20 20 25 56 52
14 15 16 19 24 22 21 22 25 25 26 27 28 29 27 25 25 27 26 28 29 26 23 21 19 23 29 24 21 20 22 18 18 20 25 32 52 56
15 17 18 21 20 22 25 24 25 28 30 27 27 25 29 27 29 28 25 20 9 15 13 20 24 29 24 22 23 24 22 20 18 18 18 52 56 51
15 17 19 20 23 24 25 26 28 27 31 33 32 28 29 28 30 29 24 19 21 20 19 21 22 27 23 21 23 27 26 20 17 14 12 53 54 56
14 17 20 23 23 26 30 31 30 29 27 26 28 33 32 34 31 30 28 25 24 27 19 12 17 21 20 19 26 28 25 17 16 11 17 41 58 67
16 17 21 25 26 28 32 32 31 31 27 28 30 32 31 29 26 24 19 14 10 9 5 11 12 15 14 16 25 22 16 12 16 15 23 48 60 72
18 19 22 24 25 31 32 29 28 28 29 34 32 29 28 26 21 19 19 13 11 7 5 5 5 6 5 12 24 20 7 9 11 13 33 50 64 58
20 22 23 24 30 34 28 27 25 28 32 28 25 25 25 21 19 17 16 16 14 12 14 13 6 4 2 6 17 24 20 23 31 34 45 54 57 69
21 24 25 31 30 28 26 24 24 25 21 21 21 20 18 19 21 18 15 12 12 15 18 14 6 5 2 4 6 18 26 28 38 40 40 41 37 39
22 26 30 26 26 24 23 23 21 20 20 18 18 18 20 20 17 13 11 9 9 6 5 7 6 6 1 11 8 12 22 27 30 37 38 37 40 44
21 22 22 23 20 21 20 20 19 18 18 17 17 20 18 16 13 11 9 7 7 10 5 1 3 8 18 17 20 17 14 11 27 32 37 38 38 38
22 19 16 17 20 20 20 20 19 16 16 16 16 17 14 13 11 11 9 6 7 8 14 24 22 22 21 21 19 22 24 27 29 32 38 35 32 32
16 14 15 17 18 19 19 20 20 14 12 16 16 13 12 11 11 9 6 7 7 8 11 18 25 27 28 29 22 26 24 27 27 30 30 32 30 26
11 15 14 15 18 18 19 18 17 17 15 12 12 12 10 9 9 6 5 6 7 8 10 15 16 18 10 11 22 21 28 26 29 28 27 27 29 24
10 12 15 16 17 17 19 19 19 18 14 12 11 9 9 8 6 4 5 6 7 7 8 8 11 13 16 13 18 23 22 26 25 26 27 31 31 27
10 12 15 17 16 17 19 21 21 19 15 11 9 9 8 6 4 4 6 7 8 9 11 13 19 25 29 27 23 25 27 22 25 29 27 26 20 19
11 13 15 17 17 18 19 20 20 17 14 10 8 7 5 3 1 3 5 7 9 10 13 15 20 22 18 23 23 23 27 27 24 22 17 13 13 9
12 13 15 17 18 19 19 19 19 19 16 12 7 5 2 0 3 6 8 10 11 12 13 14 15 20 20 22 22 21 23 20 19 21 21 15 12 14
Wind_Direction
298 295 295 297 298 295 296 297 298 302 300 303 303 304 303 307 305 293 294 302 300 302 304 299 307 319 317 310 305 308 312 306 305 206 201 195 196 195
299 301 300 299 301 301 297 297 302 315 298 296 299 302 306 302 300 304 299 302 302 305 318 305 312 316 322 310 307 296 306 302 289 234 200 197 195 195
306 303 302 304 305 304 304 298 296 295 295 296 299 302 307 309 302 299 296 292 293 293 299 304 308 313 318 315 302 292 275 278 292 296 204 199 194 193
306 306 307 309 306 303 300 302 306 296 294 299 300 303 302 307 307 301 294 290 288 290 293 296 303 311 315 315 311 295 283 270 275 273 240 199 198 195
306 308 307 308 306 305 308 311 302 300 294 292 294 302 303 308 307 302 299 294 288 289 298 303 304 305 310 315 312 307 292 275 265 270 240 211 192 191
309 307 306 306 313 317 308 302 304 303 302 292 286 293 297 304 297 298 300 301 300 295 302 301 300 305 311 309 310 301 300 282 263 256 260 242 188 187
313 310 306 302 302 308 304 305 306 302 303 299 297 299 301 306 303 299 290 297 301 299 303 298 303 308 309 305 307 297 295 292 271 251 261 220 191 171
314 312 311 310 308 303 306 304 304 301 297 295 298 295 297 298 296 295 292 293 297 303 302 299 306 304 303 304 297 301 290 284 271 254 263 193 179 182
317 314 310 308 311 310 310 307 307 297 291 291 288 289 294 299 296 292 287 286 288 292 302 297 305 295 301 307 309 312 302 282 266 257 222 178 175 178
315 310 307 310 312 312 314 309 303 300 296 293 291 294 294 296 295 290 287 290 288 290 289 281 300 291 304 311 314 311 296 267 241 243 203 176 172 168
312 309 309 311 312 316 313 304 303 302 305 304 306 308 305 304 304 304 287 282 286 289 271 264 295 302 303 329 335 323 299 255 226 225 209 194 180 167
315 317 316 316 312 316 313 306 302 304 309 312 318 319 318 317 311 306 300 277 280 291 283 253 307 331 308 0 5 357 330 211 207 214 180 167 152 140
321 320 315 313 310 317 317 310 301 310 310 312 311 314 323 323 322 316 305 297 290 267 274 276 292 298 293 353 15 31 62 109 121 133 149 144 142 143
316 314 310 310 320 320 320 320 320 319 317 314 316 319 324 328 324 319 321 321 305 281 273 277 270 278 23 62 24 39 63 83 103 110 112 120 124 127
311 310 310 323 321 322 324 326 328 326 317 315 320 321 321 323 325 332 335 352 0 357 324 257 254 295 117 109 112 75 79 76 93 103 106 109 113 115
316 312 320 324 325 327 329 330 328 325 323 319 321 322 324 334 340 348 336 359 23 35 27 47 171 142 107 108 106 99 80 97 94 98 103 104 111 117
314 317 319 328 330 332 333 332 328 329 330 332 328 326 332 342 345 351 341 355 47 62 69 92 105 112 107 112 98 97 97 96 100 102 101 98 100 106
316 313 320 324 322 327 328 330 328 328 335 330 330 332 340 346 347 354 18 71 81 85 91 100 101 94 88 76 93 102 95 95 93 99 103 103 94 100
305 311 308 319 320 324 324 325 327 330 331 332 329 337 339 341 349 359 53 82 89 105 117 121 118 116 104 93 78 98 104 99 98 90 93 97 105 108
301 306 313 314 317 322 325 324 327 325 327 332 327 334 342 343 350 17 66 88 110 106 127 138 130 119 117 113 100 85 108 110 107 103 100 105 110 122
308 307 310 316 315 317 321 324 326 322 318 323 322 330 336 346 16 52 79 105 95 88 80 72 105 119 113 110 97 81 90 109 120 116 117 112 117 123
300 305 308 313 317 315 320 322 322 320 322 322 321 323 331 347 72 125 138 114 100 105 110 118 121 121 121 114 110 106 97 109 119 122 113 125 143 149
293 301 305 313 314 318 313 316 321 319 313 307 303 303 305 179 148 120 109 115 123 124 131 132 123 115 116 119 120 120 120 114 111 101 86 91 102 129